Time,TemperatureF,DewpointF,PressureIn,WindDirection,WindDirectionDegrees,WindSpeedMPH,WindSpeedGustMPH,Humidity,HourlyPrecipIn,Conditions,Clouds,dailyrainin,SoftwareType,DateUTC
2013-03-03 00:01:00,36.1,14.7,29.91,ESE,109,4.0,8.3,41,0.00,,,-99.99,FreeWX 2.04,2013-03-03 07:01:00,
2013-03-03 00:11:00,36.1,15.3,29.91,ESE,118,6.0,11.6,42,0.00,,,-99.99,FreeWX 2.04,2013-03-03 07:11:00,
2013-03-03 00:21:00,36.1,15.3,29.91,SE,135,4.0,7.8,42,0.00,,,-99.99,FreeWX 2.04,2013-03-03 07:21:00,
2013-03-03 00:31:00,36.0,15.1,29.91,East,99,1.0,5.8,42,0.00,,,-99.99,FreeWX 2.04,2013-03-03 07:31:00,
2013-03-03 00:41:00,35.8,16.0,29.91,ESE,123,4.0,7.4,44,0.00,,,-99.99,FreeWX 2.04,2013-03-03 07:41:00,
2013-03-03 00:51:00,35.8,17.6,29.88,ESE,108,5.0,7.8,47,0.00,,,-99.99,FreeWX 2.04,2013-03-03 07:51:00,
2013-03-03 01:01:00,35.4,18.1,29.88,SE,127,1.0,4.9,49,0.00,,,-99.99,FreeWX 2.04,2013-03-03 08:01:00,
2013-03-03 01:11:00,35.6,19.2,29.88,ESE,119,4.0,8.3,51,0.00,,,-99.99,FreeWX 2.04,2013-03-03 08:11:00,
2013-03-03 01:21:00,35.6,19.8,29.88,SE,124,5.0,9.2,52,0.00,,,-99.99,FreeWX 2.04,2013-03-03 08:21:00,
2013-03-03 01:31:00,36.0,19.6,29.88,SE,126,4.0,7.8,51,0.00,,,-99.99,FreeWX 2.04,2013-03-03 08:31:00,
2013-03-03 01:41:00,35.6,19.8,29.88,SE,127,4.0,9.2,52,0.00,,,-99.99,FreeWX 2.04,2013-03-03 08:41:00,
2013-03-03 01:51:00,35.6,20.1,29.85,ESE,114,5.0,10.5,53,0.00,,,-99.99,FreeWX 2.04,2013-03-03 08:51:00,
2013-03-03 02:01:00,35.1,21.0,29.85,ESE,120,5.0,8.3,56,0.00,,,-99.99,FreeWX 2.04,2013-03-03 09:01:00,
2013-03-03 02:11:00,35.1,21.7,29.85,ESE,115,2.0,6.9,58,0.00,,,-99.99,FreeWX 2.04,2013-03-03 09:11:00,
2013-03-03 02:21:00,34.9,22.1,29.85,ESE,117,3.0,6.9,59,0.00,,,-99.99,FreeWX 2.04,2013-03-03 09:21:00,
2013-03-03 02:31:00,35.2,21.9,29.85,ESE,113,5.0,9.2,58,0.00,,,-99.99,FreeWX 2.04,2013-03-03 09:31:00,
2013-03-03 02:41:00,34.7,22.6,29.85,North,-999,0.0,4.9,61,0.00,,,-99.99,FreeWX 2.04,2013-03-03 09:41:00,
2013-03-03 02:51:00,34.3,23.0,29.85,North,-999,0.0,0.0,63,0.00,,,-99.99,FreeWX 2.04,2013-03-03 09:51:00,
2013-03-03 03:01:00,34.0,23.5,29.85,North,-999,0.0,0.0,65,0.00,,,-99.99,FreeWX 2.04,2013-03-03 10:01:00,
2013-03-03 03:11:00,33.6,24.3,29.85,ESE,108,1.0,5.4,68,0.00,,,-99.99,FreeWX 2.04,2013-03-03 10:11:00,
2013-03-03 03:21:00,33.4,24.8,29.82,East,93,2.0,5.8,70,0.00,,,-99.99,FreeWX 2.04,2013-03-03 10:21:00,
2013-03-03 03:31:00,33.6,25.5,29.82,ESE,119,4.0,7.4,72,0.04,,,-99.99,FreeWX 2.04,2013-03-03 10:31:00,
2013-03-03 03:41:00,34.2,26.4,29.82,ESE,112,3.0,7.8,73,0.04,,,-99.99,FreeWX 2.04,2013-03-03 10:41:00,
2013-03-03 03:51:00,34.0,25.9,29.82,East,100,1.0,5.4,72,0.04,,,-99.99,FreeWX 2.04,2013-03-03 10:51:00,
2013-03-03 04:01:00,34.0,25.9,29.82,East,87,2.0,6.7,72,0.04,,,-99.99,FreeWX 2.04,2013-03-03 11:01:00,
2013-03-03 04:11:00,34.5,26.1,29.82,North,-999,0.0,4.0,71,0.04,,,-99.99,FreeWX 2.04,2013-03-03 11:11:00,
2013-03-03 04:21:00,34.3,25.5,29.82,North,-999,0.0,0.0,70,0.04,,,-99.99,FreeWX 2.04,2013-03-03 11:21:00,
2013-03-03 04:31:00,34.0,25.2,29.82,North,-999,0.0,4.9,70,0.00,,,-99.99,FreeWX 2.04,2013-03-03 11:31:00,
2013-03-03 04:41:00,33.8,25.3,29.82,North,-999,0.0,3.1,71,0.00,,,-99.99,FreeWX 2.04,2013-03-03 11:41:00,
2013-03-03 04:51:00,33.4,25.0,29.82,ENE,75,1.0,4.0,71,0.00,,,-99.99,FreeWX 2.04,2013-03-03 11:51:00,
2013-03-03 05:01:00,33.4,25.3,29.82,ENE,75,2.0,4.5,72,0.04,,,-99.99,FreeWX 2.04,2013-03-03 12:01:00,
2013-03-03 05:32:00,35.4,22.5,29.82,South,178,2.0,11.6,59,0.04,,,-99.99,FreeWX 2.04,2013-03-03 12:32:00,
2013-03-03 05:42:00,36.0,21.0,29.82,SW,219,3.0,9.6,54,0.04,,,-99.99,FreeWX 2.04,2013-03-03 12:42:00,
2013-03-03 05:52:00,36.0,20.1,29.79,SSW,204,3.0,13.0,52,0.04,,,-99.99,FreeWX 2.04,2013-03-03 12:52:00,
2013-03-03 06:02:00,35.8,20.3,29.79,SW,218,4.0,10.1,53,0.00,,,-99.99,FreeWX 2.04,2013-03-03 13:02:00,
2013-03-03 06:12:00,35.6,20.1,29.79,SSW,210,2.0,7.4,53,0.00,,,-99.99,FreeWX 2.04,2013-03-03 13:12:00,
2013-03-03 06:22:00,35.8,19.9,29.79,SSW,209,4.0,8.7,52,0.00,,,-99.99,FreeWX 2.04,2013-03-03 13:22:00,
2013-03-03 06:32:00,35.4,19.9,29.79,SW,217,1.0,6.3,53,0.00,,,-99.99,FreeWX 2.04,2013-03-03 13:32:00,
2013-03-03 06:42:00,35.4,20.5,29.79,SW,224,3.0,13.0,54,0.00,,,-99.99,FreeWX 2.04,2013-03-03 13:42:00,
2013-03-03 06:52:00,35.1,20.5,29.79,NW,307,1.0,6.7,55,0.00,,,-99.99,FreeWX 2.04,2013-03-03 13:52:00,
2013-03-03 07:02:00,34.7,21.4,29.79,North,-999,0.0,4.0,58,0.00,,,-99.99,FreeWX 2.04,2013-03-03 14:02:00,
2013-03-03 07:12:00,34.2,22.5,29.79,ENE,68,1.0,4.5,62,0.00,,,-99.99,FreeWX 2.04,2013-03-03 14:12:00,
2013-03-03 07:22:00,34.3,23.0,29.79,North,-999,0.0,3.6,63,0.00,,,-99.99,FreeWX 2.04,2013-03-03 14:22:00,
2013-03-03 07:32:00,34.3,22.6,29.79,North,-999,0.0,4.0,62,0.04,,,-99.99,FreeWX 2.04,2013-03-03 14:32:00,
2013-03-03 07:42:00,34.5,22.5,29.79,WSW,258,1.0,7.8,61,0.04,,,-99.99,FreeWX 2.04,2013-03-03 14:42:00,
2013-03-03 07:52:00,34.9,21.6,29.76,SSE,147,2.0,8.7,58,0.04,,,-99.99,FreeWX 2.04,2013-03-03 14:52:00,
2013-03-03 08:02:00,35.1,21.4,29.76,North,-999,0.0,4.5,57,0.04,,,-99.99,FreeWX 2.04,2013-03-03 15:02:00,
2013-03-03 08:12:00,35.1,21.7,29.76,NE,37,2.0,6.3,58,0.04,,,-99.99,FreeWX 2.04,2013-03-03 15:12:00,
2013-03-03 08:22:00,34.9,21.6,29.76,SE,137,1.0,5.8,58,0.00,,,-99.99,FreeWX 2.04,2013-03-03 15:22:00,
2013-03-03 08:32:00,34.9,22.5,29.76,NE,36,1.0,4.9,60,0.00,,,-99.99,FreeWX 2.04,2013-03-03 15:32:00,
2013-03-03 08:42:00,34.9,22.8,29.76,North,-999,0.0,6.3,61,0.00,,,-99.99,FreeWX 2.04,2013-03-03 15:42:00,
2013-03-03 08:52:00,35.1,22.6,29.76,SE,138,2.0,4.9,60,0.00,,,-99.99,FreeWX 2.04,2013-03-03 15:52:00,
2013-03-03 09:02:00,35.2,21.9,29.76,SE,143,1.0,6.3,58,0.00,,,-99.99,FreeWX 2.04,2013-03-03 16:02:00,
2013-03-03 09:12:00,35.4,22.1,29.76,WSW,246,2.0,6.7,58,0.00,,,-99.99,FreeWX 2.04,2013-03-03 16:12:00,
2013-03-03 09:22:00,35.2,21.9,29.76,West,276,3.0,6.3,58,0.00,,,-99.99,FreeWX 2.04,2013-03-03 16:22:00,
2013-03-03 09:32:00,35.2,21.6,29.76,West,269,3.0,8.3,57,0.00,,,-99.99,FreeWX 2.04,2013-03-03 16:32:00,
2013-03-03 09:42:00,35.6,21.6,29.76,WSW,253,3.0,9.6,56,0.00,,,-99.99,FreeWX 2.04,2013-03-03 16:42:00,
2013-03-03 09:52:00,36.0,22.3,29.76,WSW,249,2.0,7.4,57,0.00,,,-99.99,FreeWX 2.04,2013-03-03 16:52:00,
2013-03-03 10:02:00,36.3,21.7,29.76,North,-999,0.0,4.0,55,0.00,,,-99.99,FreeWX 2.04,2013-03-03 17:02:00,
2013-03-03 10:12:00,35.8,20.8,29.74,North,-999,0.0,4.9,54,0.04,,,-99.99,FreeWX 2.04,2013-03-03 17:12:00,
2013-03-03 10:22:00,35.8,21.2,29.74,North,-999,0.0,0.0,55,0.04,,,-99.99,FreeWX 2.04,2013-03-03 17:22:00,
2013-03-03 10:32:00,36.9,20.8,29.74,North,-999,0.0,0.0,52,0.04,,,-99.99,FreeWX 2.04,2013-03-03 17:32:00,
2013-03-03 10:42:00,37.8,20.3,29.74,North,-999,0.0,5.8,49,0.04,,,-99.99,FreeWX 2.04,2013-03-03 17:42:00,
2013-03-03 10:52:00,37.9,18.5,29.74,North,-999,0.0,0.0,45,0.04,,,-99.99,FreeWX 2.04,2013-03-03 17:52:00,
2013-03-03 11:02:00,37.6,17.1,29.74,North,-999,0.0,9.6,43,0.04,,,-99.99,FreeWX 2.04,2013-03-03 18:02:00,
2013-03-03 11:12:00,38.7,17.6,29.74,North,-999,0.0,3.1,42,0.00,,,-99.99,FreeWX 2.04,2013-03-03 18:12:00,
2013-03-03 11:22:00,37.4,17.1,29.74,SW,228,1.0,13.4,43,0.00,,,-99.99,FreeWX 2.04,2013-03-03 18:22:00,
2013-03-03 11:33:00,36.3,19.0,29.74,SW,230,5.0,13.0,49,0.00,,,-99.99,FreeWX 2.04,2013-03-03 18:33:00,
2013-03-03 11:43:00,36.9,19.6,29.74,SW,217,2.0,11.6,49,0.00,,,-99.99,FreeWX 2.04,2013-03-03 18:43:00,
2013-03-03 11:53:00,36.9,19.6,29.71,SSW,209,2.0,11.6,49,0.00,,,-99.99,FreeWX 2.04,2013-03-03 18:53:00,
2013-03-03 12:03:00,36.7,18.9,29.71,SSW,210,3.0,10.5,48,0.00,,,-99.99,FreeWX 2.04,2013-03-03 19:03:00,
2013-03-03 12:13:00,37.0,17.8,29.71,SSW,210,4.0,14.8,45,0.00,,,-99.99,FreeWX 2.04,2013-03-03 19:13:00,
2013-03-03 12:23:00,39.4,17.1,29.71,SW,220,6.0,15.2,40,0.00,,,-99.99,FreeWX 2.04,2013-03-03 19:23:00,
2013-03-03 12:33:00,40.3,16.7,29.71,SSW,210,4.0,13.9,38,0.00,,,-99.99,FreeWX 2.04,2013-03-03 19:33:00,
2013-03-03 12:43:00,38.8,16.0,29.71,SW,216,5.0,19.0,39,0.00,,,-99.99,FreeWX 2.04,2013-03-03 19:43:00,
2013-03-03 12:53:00,40.1,16.5,29.71,SSW,211,8.0,15.9,38,0.00,,,-99.99,FreeWX 2.04,2013-03-03 19:53:00,
2013-03-03 13:03:00,37.9,15.3,29.71,SW,219,6.0,15.2,39,0.00,,,-99.99,FreeWX 2.04,2013-03-03 20:03:00,
2013-03-03 13:13:00,38.8,16.0,29.71,SW,216,6.0,14.8,39,0.00,,,-99.99,FreeWX 2.04,2013-03-03 20:13:00,
2013-03-03 13:23:00,38.3,15.6,29.71,SW,224,6.0,15.2,39,0.00,,,-99.99,FreeWX 2.04,2013-03-03 20:23:00,
2013-03-03 13:33:00,38.8,16.0,29.71,SW,220,6.0,18.1,39,0.00,,,-99.99,FreeWX 2.04,2013-03-03 20:33:00,
2013-03-03 13:43:00,38.5,14.5,29.71,SW,223,9.0,19.0,37,0.00,,,-99.99,FreeWX 2.04,2013-03-03 20:43:00,
2013-03-03 13:53:00,39.0,16.2,29.71,SW,222,6.0,13.4,39,0.00,,,-99.99,FreeWX 2.04,2013-03-03 20:53:00,
2013-03-03 14:03:00,38.8,16.0,29.71,SW,224,8.0,19.9,39,0.00,,,-99.99,FreeWX 2.04,2013-03-03 21:03:00,
2013-03-03 14:13:00,38.8,16.0,29.71,SW,221,8.0,18.1,39,0.00,,,-99.99,FreeWX 2.04,2013-03-03 21:13:00,
2013-03-03 14:23:00,38.1,14.7,29.71,SW,232,9.0,21.0,38,0.00,,,-99.99,FreeWX 2.04,2013-03-03 21:23:00,
2013-03-03 14:33:00,37.2,14.0,29.71,SW,234,10.0,22.8,38,0.00,,,-99.99,FreeWX 2.04,2013-03-03 21:33:00,
2013-03-03 14:43:00,37.2,14.0,29.71,SW,228,9.0,19.5,38,0.00,,,-99.99,FreeWX 2.04,2013-03-03 21:43:00,
2013-03-03 14:53:00,37.4,11.7,29.71,SW,220,8.0,20.1,34,0.00,,,-99.99,FreeWX 2.04,2013-03-03 21:53:00,
2013-03-03 15:03:00,37.0,10.6,29.71,SW,222,9.0,17.7,33,0.00,,,-99.99,FreeWX 2.04,2013-03-03 22:03:00,
2013-03-03 15:13:00,37.2,10.0,29.71,SW,226,9.0,19.9,32,0.00,,,-99.99,FreeWX 2.04,2013-03-03 22:13:00,
2013-03-03 15:23:00,38.7,12.0,29.71,SW,225,7.0,19.0,33,0.00,,,-99.99,FreeWX 2.04,2013-03-03 22:23:00,
2013-03-03 15:33:00,36.7,9.7,29.71,SW,230,8.0,19.0,32,0.00,,,-99.99,FreeWX 2.04,2013-03-03 22:33:00,
2013-03-03 15:43:00,36.9,11.8,29.71,SW,227,8.0,19.0,35,0.00,,,-99.99,FreeWX 2.04,2013-03-03 22:43:00,
2013-03-03 15:53:00,36.7,10.4,29.71,SW,231,8.0,21.5,33,0.00,,,-99.99,FreeWX 2.04,2013-03-03 22:53:00,
2013-03-03 16:03:00,35.6,11.3,29.71,SW,232,8.0,17.2,36,0.00,,,-99.99,FreeWX 2.04,2013-03-03 23:03:00,
2013-03-03 16:13:00,36.3,12.6,29.71,SW,223,8.0,18.1,37,0.00,,,-99.99,FreeWX 2.04,2013-03-03 23:13:00,
2013-03-03 16:23:00,35.2,10.9,29.71,SW,218,7.0,15.2,36,0.00,,,-99.99,FreeWX 2.04,2013-03-03 23:23:00,
2013-03-03 16:33:00,34.7,12.4,29.71,SW,217,8.0,17.7,39,0.00,,,-99.99,FreeWX 2.04,2013-03-03 23:33:00,
2013-03-03 16:43:00,34.7,11.1,29.71,SW,218,7.0,16.3,37,0.00,,,-99.99,FreeWX 2.04,2013-03-03 23:43:00,
2013-03-03 16:53:00,34.3,12.6,29.71,SW,224,7.0,19.0,40,0.00,,,-99.99,FreeWX 2.04,2013-03-03 23:53:00,
2013-03-03 17:03:00,34.0,12.2,29.71,SW,231,10.0,19.9,40,0.00,,,-99.99,FreeWX 2.04,2013-03-04 00:03:00,
2013-03-03 17:13:00,34.0,12.2,29.71,SW,235,10.0,21.0,40,0.00,,,-99.99,FreeWX 2.04,2013-03-04 00:13:00,
2013-03-03 17:23:00,33.8,12.0,29.71,SW,236,9.0,18.1,40,0.00,,,-99.99,FreeWX 2.04,2013-03-04 00:23:00,
2013-03-03 17:33:00,33.8,12.0,29.71,SW,233,9.0,17.7,40,0.00,,,-99.99,FreeWX 2.04,2013-03-04 00:33:00,
2013-03-03 17:43:00,33.6,12.4,29.71,SW,229,4.0,13.0,41,0.00,,,-99.99,FreeWX 2.04,2013-03-04 00:43:00,
2013-03-03 17:53:00,33.3,12.2,29.71,SW,230,4.0,11.6,41,0.00,,,-99.99,FreeWX 2.04,2013-03-04 00:53:00,
2013-03-03 18:03:00,33.4,10.0,29.71,WSW,239,7.0,18.1,37,0.00,,,-99.99,FreeWX 2.04,2013-03-04 01:03:00,
2013-03-03 18:13:00,32.9,10.8,29.71,WSW,247,3.0,11.0,39,0.00,,,-99.99,FreeWX 2.04,2013-03-04 01:13:00,
2013-03-03 18:23:00,32.9,10.0,29.71,SW,235,8.0,19.5,38,0.00,,,-99.99,FreeWX 2.04,2013-03-04 01:23:00,
2013-03-03 18:33:00,32.7,9.3,29.71,WSW,238,8.0,15.4,37,0.00,,,-99.99,FreeWX 2.04,2013-03-04 01:33:00,
2013-03-03 18:43:00,32.5,9.9,29.71,SW,229,7.0,15.9,38,0.00,,,-99.99,FreeWX 2.04,2013-03-04 01:43:00,
2013-03-03 18:53:00,31.5,10.6,29.71,WSW,237,8.0,18.1,41,0.00,,,-99.99,FreeWX 2.04,2013-03-04 01:53:00,
2013-03-03 19:03:00,30.9,11.1,29.71,WSW,239,7.0,13.9,43,0.00,,,-99.99,FreeWX 2.04,2013-03-04 02:03:00,
2013-03-03 19:13:00,30.4,11.1,29.71,WSW,238,6.0,16.3,44,0.00,,,-99.99,FreeWX 2.04,2013-03-04 02:13:00,
2013-03-03 19:23:00,29.8,10.6,29.74,WSW,245,8.0,17.2,44,0.00,,,-99.99,FreeWX 2.04,2013-03-04 02:23:00,
2013-03-03 19:33:00,28.6,11.5,29.74,WSW,251,9.0,16.3,48,0.00,,,-99.99,FreeWX 2.04,2013-03-04 02:33:00,
2013-03-03 19:43:00,28.2,12.9,29.74,WSW,254,8.0,15.2,52,0.00,,,-99.99,FreeWX 2.04,2013-03-04 02:43:00,
2013-03-03 19:53:00,27.9,13.8,29.74,WSW,255,7.0,13.0,55,0.00,,,-99.99,FreeWX 2.04,2013-03-04 02:53:00,
2013-03-03 20:03:00,25.0,12.4,29.74,NW,304,10.0,16.3,58,0.00,,,-99.99,FreeWX 2.04,2013-03-04 03:03:00,
2013-03-03 20:13:00,23.9,14.2,29.76,NNW,328,10.0,15.2,66,0.00,,,-99.99,FreeWX 2.04,2013-03-04 03:13:00,
2013-03-03 20:24:00,23.7,15.1,29.76,NNW,337,8.0,12.5,69,0.00,,,-99.99,FreeWX 2.04,2013-03-04 03:24:00,
2013-03-03 20:34:00,23.2,14.9,29.76,North,353,10.0,15.9,70,0.00,,,-99.99,FreeWX 2.04,2013-03-04 03:34:00,
2013-03-03 20:44:00,23.0,15.3,29.76,North,354,12.0,18.6,72,0.00,,,-99.99,FreeWX 2.04,2013-03-04 03:44:00,
2013-03-03 20:54:00,23.0,15.6,29.76,NNW,347,11.0,16.8,73,0.00,,,-99.99,FreeWX 2.04,2013-03-04 03:54:00,
2013-03-03 21:04:00,22.5,15.1,29.76,North,351,10.0,15.4,73,0.00,,,-99.99,FreeWX 2.04,2013-03-04 04:04:00,
2013-03-03 21:14:00,22.1,14.7,29.76,North,357,9.0,14.8,73,0.00,,,-99.99,FreeWX 2.04,2013-03-04 04:14:00,
2013-03-03 21:24:00,21.9,14.4,29.76,North,351,8.0,13.9,72,0.00,,,-99.99,FreeWX 2.04,2013-03-04 04:24:00,
2013-03-03 21:34:00,21.6,14.0,29.76,NNW,347,6.0,10.5,72,0.00,,,-99.99,FreeWX 2.04,2013-03-04 04:34:00,
2013-03-03 21:44:00,21.4,13.8,29.79,NNW,340,5.0,6.9,72,0.00,,,-99.99,FreeWX 2.04,2013-03-04 04:44:00,
2013-03-03 21:54:00,21.4,13.8,29.79,NNW,340,5.0,6.9,72,0.00,,,-99.99,FreeWX 2.04,2013-03-04 04:54:00,
2013-03-03 22:04:00,21.2,13.6,29.79,NNW,337,4.0,6.9,72,0.00,,,-99.99,FreeWX 2.04,2013-03-04 05:04:00,
2013-03-03 22:14:00,21.2,13.6,29.79,North,-999,0.0,3.6,72,0.00,,,-99.99,FreeWX 2.04,2013-03-04 05:14:00,
2013-03-03 22:24:00,21.0,13.1,29.79,North,-999,0.0,0.0,71,0.00,,,-99.99,FreeWX 2.04,2013-03-04 05:24:00,
2013-03-03 22:34:00,21.0,13.1,29.79,North,-999,0.0,0.0,71,0.00,,,-99.99,FreeWX 2.04,2013-03-04 05:34:00,
2013-03-03 22:44:00,21.0,13.1,29.79,North,-999,0.0,0.0,71,0.00,,,-99.99,FreeWX 2.04,2013-03-04 05:44:00,
2013-03-03 22:54:00,20.7,12.7,29.79,North,-999,0.0,0.0,71,0.00,,,-99.99,FreeWX 2.04,2013-03-04 05:54:00,
2013-03-03 23:04:00,20.3,12.0,29.79,NNW,344,1.0,4.9,70,0.00,,,-99.99,FreeWX 2.04,2013-03-04 06:04:00,
2013-03-03 23:14:00,20.5,12.2,29.79,NNW,346,4.0,6.3,70,0.00,,,-99.99,FreeWX 2.04,2013-03-04 06:14:00,
2013-03-03 23:24:00,20.3,12.0,29.79,East,79,3.0,6.3,70,0.00,,,-99.99,FreeWX 2.04,2013-03-04 06:24:00,
2013-03-03 23:34:00,20.3,12.0,29.79,East,100,4.0,5.8,70,0.00,,,-99.99,FreeWX 2.04,2013-03-04 06:34:00,
2013-03-03 23:44:00,20.3,12.0,29.79,ESE,109,3.0,5.4,70,0.00,,,-99.99,FreeWX 2.04,2013-03-04 06:44:00,
2013-03-03 23:54:00,20.3,12.0,29.79,ESE,117,4.0,6.7,70,0.00,,,-99.99,FreeWX 2.04,2013-03-04 06:54:00,